Orbital Elements at Epoch 2459200.5 (2020-Dec-17.0) TDB
Reference: JPL 29 (heliocentric ecliptic J2000)
Element | Value | Uncertainty (1-sigma) | Units |
e | .09214052532565939 | 3.1423e-08 | |
a | 3.159634089549506 | 1.7713e-08 | au |
q | 2.868503744701553 | 9.8384e-08 | au |
i | 5.867799547107557 | 4.1406e-06 | deg |
node | 45.85837301906498 | 3.4409e-05 | deg |
peri | 62.64152839907858 | 4.1327e-05 | deg |
M | 220.6292413682216 | 2.4233e-05 | deg |
tp | 2459994.687004591717 (2023-Feb-19.18700459) | 0.00013971 | TDB |
period | 2051.41540779292 5.62 | 1.725e-05 4.723e-08 | d yr |
n | .1754885912587141 | 1.4757e-09 | deg/d |
Q | 3.450764434397459 | 1.9345e-08 | au |
|
| | Orbit Determination Parameters
Additional Information
|